FW9607 Weather Reports


Display with metric or nautical units.
time (UTC)temp
F
wind
direction
speed
MPH
gust
MPH
rain 1hr
in
rain 24hr
in
rain mn
in
humidity
%
barometer
mb
20260506175726 87 241 4.0 9.0 0.00 0.00 0.00 76 1007.0
20260506175225 87 231 4.0 9.0 0.00 0.00 0.00 76 1006.9
20260506174723 87 221 3.0 7.0 0.00 0.00 0.00 76 1007.0
20260506174223 87 284 3.0 8.0 0.00 0.00 0.00 76 1007.1
20260506173723 87 193 3.0 8.0 0.00 0.00 0.00 75 1007.1
20260506173223 87 225 3.0 6.0 0.00 0.00 0.00 75 1007.1
20260506172723 87 198 3.0 9.0 0.00 0.00 0.00 76 1007.1
20260506172223 86 170 3.0 9.0 0.00 0.00 0.00 76 1007.0
20260506171723 86 181 3.0 9.0 0.00 0.00 0.00 78 1007.0
20260506171223 86 177 3.0 8.0 0.00 0.00 0.00 77 1007.0
20260506170723 85 217 2.0 6.0 0.00 0.00 0.00 79 1007.0
20260506170214 84 205 3.0 8.0 0.00 0.00 0.00 81 1007.0
20260506165713 84 203 4.0 8.0 0.00 0.00 0.00 82 1007.1
20260506165214 84 251 3.0 6.0 0.00 0.00 0.00 82 1007.1
20260506164714 83 190 3.0 8.0 0.00 0.00 0.00 83 1007.2
20260506164217 83 152 3.0 8.0 0.00 0.00 0.00 84 1007.3
20260506163714 82 196 3.0 7.0 0.00 0.00 0.00 85 1007.3
20260506163221 82 175 3.0 7.0 0.00 0.00 0.00 85 1007.3
20260506162219 82 175 4.0 9.0 0.00 0.00 0.00 85 1007.3
20260506161714 82 202 3.0 9.0 0.00 0.00 0.00 86 1007.2
20260506161220 82 114 3.0 6.0 0.00 0.00 0.00 87 1007.2
20260506160226 81 162 4.0 9.0 0.00 0.00 0.00 88 1007.2
20260506155711 81 181 4.0 10.0 0.00 0.00 0.00 88 1007.1
20260506155213 81 133 3.0 10.0 0.00 0.00 0.00 88 1007.0
20260506154710 81 142 3.0 6.0 0.00 0.00 0.00 88 1007.0
20260506153710 81 187 3.0 7.0 0.00 0.00 0.00 89 1006.9
20260506153209 81 149 2.0 6.0 0.00 0.00 0.00 89 1006.8
20260506152710 81 233 2.0 4.0 0.00 0.00 0.00 89 1006.8
20260506151710 81 188 3.0 4.0 0.00 0.00 0.00 89 1006.7
20260506151209 80 222 2.0 5.0 0.00 0.00 0.00 90 1006.6
20260506150711 80 166 2.0 5.0 0.00 0.00 0.00 91 1006.6
20260506150157 80 139 2.0 5.0 0.00 0.00 0.00 91 1006.7
20260506145655 80 149 2.0 4.0 0.00 0.00 0.00 91 1006.7
20260506145154 80 185 2.0 4.0 0.00 0.00 0.00 92 1006.7
20260506144656 80 163 2.0 5.0 0.00 0.00 0.00 91 1006.8
20260506144140 80 162 2.0 5.0 0.00 0.00 0.00 91 1006.7
20260506143657 80 140 2.0 3.0 0.00 0.00 0.00 92 1006.7
20260506142643 79 127 2.0 5.0 0.00 0.00 0.00 93 1006.8
20260506142140 79 146 2.0 5.0 0.00 0.00 0.00 93 1006.8
20260506141644 79 133 2.0 4.0 0.00 0.00 0.00 93 1006.8
20260506141140 79 136 2.0 4.0 0.00 0.00 0.00 93 1006.9
20260506140645 79 165 2.0 4.0 0.00 0.00 0.00 94 1006.9
20260506135643 79 132 2.0 3.0 0.00 0.00 0.00 94 1006.9
20260506135141 79 143 2.0 3.0 0.00 0.00 0.00 93 1006.9
20260506134643 79 147 2.0 3.0 0.00 0.00 0.00 93 1006.9
20260506134139 79 175 2.0 4.0 0.00 0.00 0.00 93 1006.8
20260506132113 79 158 2.0 4.0 0.00 0.00 0.00 93 1006.8
20260506131616 79 145 2.0 4.0 0.00 0.00 0.00 93 1006.8
20260506131112 79 152 2.0 4.0 0.00 0.00 0.00 93 1006.8
20260506130616 78 191 2.0 6.0 0.00 0.00 0.00 92 1006.7
20260506130112 78 151 2.0 6.0 0.00 0.00 0.00 93 1006.6
20260506125616 78 114 2.0 5.0 0.00 0.00 0.00 93 1006.6
20260506124559 78 125 3.0 5.0 0.00 0.00 0.00 93 1006.4
20260506124100 78 139 2.0 5.0 0.00 0.00 0.00 93 1006.4
20260506123557 78 110 2.0 4.0 0.00 0.00 0.00 93 1006.4
20260506123056 78 161 2.0 4.0 0.00 0.00 0.00 93 1006.3
20260506122556 78 142 2.0 4.0 0.00 0.00 0.00 93 1006.2
20260506122056 78 140 2.0 4.0 0.00 0.00 0.00 93 1006.3
20260506121556 78 94 2.0 3.0 0.00 0.00 0.00 93 1006.3
20260506121057 78 172 2.0 4.0 0.00 0.00 0.00 93 1006.2
20260506120542 78 165 2.0 4.0 0.00 0.00 0.00 93 1006.1
20260506120042 78 85 2.0 3.0 0.00 0.00 0.00 93 1006.1
20260506115542 78 136 2.0 3.0 0.00 0.00 0.00 93 1006.0
20260506115041 78 106 2.0 4.0 0.00 0.00 0.00 93 1005.9
20260506114042 78 104 2.0 5.0 0.00 0.00 0.00 93 1005.9
20260506113546 78 138 2.0 4.0 0.00 0.00 0.00 93 1005.8
20260506113044 78 106 2.0 4.0 0.00 0.00 0.00 93 1005.9
20260506112546 78 86 2.0 4.0 0.00 0.00 0.00 93 1005.9
20260506112043 78 84 2.0 4.0 0.00 0.00 0.00 92 1005.9
20260506111546 78 92 2.0 4.0 0.00 0.00 0.00 92 1005.9
20260506111043 78 89 2.0 4.0 0.00 0.00 0.00 92 1005.8
20260506110546 78 131 2.0 4.0 0.00 0.00 0.00 92 1005.7
20260506110042 78 97 3.0 4.0 0.00 0.00 0.00 92 1005.7
20260506105545 78 106 2.0 4.0 0.00 0.00 0.00 92 1005.6
20260506105028 78 145 2.0 5.0 0.00 0.00 0.00 92 1005.6
20260506104516 78 115 2.0 5.0 0.00 0.00 0.00 92 1005.5
20260506104014 78 126 2.0 5.0 0.00 0.00 0.00 92 1005.5
20260506103515 78 95 2.0 3.0 0.00 0.00 0.00 92 1005.5
20260506103012 78 91 2.0 3.0 0.00 0.00 0.00 92 1005.6
20260506102514 78 126 2.0 3.0 0.00 0.00 0.00 92 1005.6
20260506102012 78 126 2.0 3.0 0.00 0.00 0.00 92 1005.6
20260506101515 78 146 2.0 3.0 0.00 0.00 0.00 92 1005.6
20260506101013 78 136 2.0 3.0 0.00 0.00 0.00 92 1005.5
20260506100515 78 138 2.0 3.0 0.00 0.00 0.00 92 1005.4
20260506100013 78 135 2.0 3.0 0.00 0.00 0.00 92 1005.4
20260506095514 78 159 2.0 3.0 0.00 0.00 0.00 92 1005.4
20260506095013 78 148 2.0 4.0 0.00 0.00 0.00 92 1005.4
20260506094514 78 155 2.0 4.0 0.00 0.00 0.00 92 1005.5
20260506094013 78 144 2.0 3.0 0.00 0.00 0.00 91 1005.5
20260506093000 78 157 2.0 3.0 0.00 0.00 0.00 91 1005.4
20260506092504 78 123 2.0 3.0 0.00 0.00 0.00 91 1005.3
20260506091944 78 138 2.0 4.0 0.00 0.00 0.00 91 1005.3
20260506091444 78 140 2.0 4.0 0.00 0.00 0.00 91 1005.3
20260506090946 78 128 2.0 4.0 0.00 0.00 0.00 91 1005.3
20260506090450 78 153 2.0 3.0 0.00 0.00 0.00 91 1005.2
20260506085450 78 147 2.0 3.0 0.00 0.00 0.00 91 1005.2
20260506084945 78 153 2.0 2.0 0.00 0.00 0.00 91 1005.1
20260506084450 78 175 2.0 3.0 0.00 0.00 0.00 91 1005.0
20260506083448 79 127 1.0 3.0 0.00 0.00 0.00 90 1005.1
20260506082945 79 148 1.0 2.0 0.00 0.00 0.00 90 1005.1
20260506082446 79 84 1.0 3.0 0.00 0.00 0.00 90 1005.0
20260506081943 79 183 2.0 3.0 0.00 0.00 0.00 90 1005.1
20260506081443 79 192 2.0 4.0 0.00 0.00 0.00 90 1005.1
20260506080930 79 148 2.0 4.0 0.00 0.00 0.00 90 1005.1
20260506073425 79 149 2.0 5.0 0.00 0.00 0.00 90 1005.2
20260506072925 79 173 2.0 6.0 0.00 0.00 0.00 90 1005.3
20260506072424 79 156 3.0 6.0 0.00 0.00 0.00 90 1005.3
20260506071425 79 183 2.0 6.0 0.00 0.00 0.00 90 1005.3
20260506070926 79 109 3.0 7.0 0.00 0.00 0.00 90 1005.3
20260506070425 79 127 3.0 7.0 0.00 0.00 0.00 90 1005.3
20260506062423 79 113 2.0 4.0 0.00 0.00 0.00 91 1005.8
20260506061922 79 150 2.0 4.0 0.00 0.00 0.00 91 1006.0
20260506061423 79 175 2.0 5.0 0.00 0.00 0.00 91 1006.0
20260506060423 79 104 2.0 6.0 0.00 0.00 0.00 91 1006.1
20260506050917 78 156 3.0 7.0 0.00 0.00 0.00 92 1006.2
20260506050418 78 162 4.0 7.0 0.00 0.00 0.00 92 1006.2
20260506044918 78 124 3.0 5.0 0.00 0.00 0.00 92 1006.4
20260506044419 78 153 3.0 6.0 0.00 0.00 0.00 92 1006.3
20260506043919 78 132 4.0 7.0 0.00 0.00 0.00 92 1006.3
20260506043419 78 102 4.0 7.0 0.00 0.00 0.00 92 1006.3
20260506042415 78 143 4.0 7.0 0.00 0.00 0.00 92 1006.3
20260506041913 78 150 4.0 9.0 0.00 0.00 0.00 92 1006.2
20260506041413 78 137 4.0 9.0 0.00 0.00 0.00 92 1006.1
20260506040912 78 154 3.0 5.0 0.00 0.00 0.00 92 1006.1
20260506035913 78 161 4.0 6.0 0.00 0.00 0.00 92 1006.1
20260506035412 78 147 3.0 6.0 0.00 0.00 0.00 92 1006.0
20260506034913 78 140 3.0 6.0 0.00 0.00 0.00 92 1006.1
20260506033913 78 162 3.0 6.0 0.00 0.00 0.00 92 1006.0
20260506033413 78 163 3.0 6.0 0.00 0.00 0.00 92 1005.9
20260506032914 78 143 4.0 6.0 0.00 0.00 0.00 92 1005.8
20260506032413 78 175 4.0 9.0 0.00 0.00 0.00 92 1005.7
20260506031914 78 165 4.0 9.0 0.00 0.00 0.00 92 1005.7
20260506031413 78 122 4.0 9.0 0.00 0.00 0.00 91 1005.6
20260506030411 78 119 3.0 6.0 0.00 0.00 0.00 91 1005.5
20260506025911 78 137 3.0 8.0 0.00 0.00 0.00 91 1005.4
20260506025411 78 152 4.0 10.0 0.00 0.00 0.00 91 1005.4
20260506024910 78 152 4.0 10.0 0.00 0.00 0.00 91 1005.4
20260506024411 78 164 3.0 7.0 0.00 0.00 0.00 91 1005.3
20260506023911 79 156 3.0 7.0 0.00 0.00 0.00 91 1005.2
20260506023410 79 145 3.0 9.0 0.00 0.00 0.00 90 1005.1
20260506022911 79 144 3.0 9.0 0.00 0.00 0.00 90 1005.2
20260506022411 79 176 3.0 8.0 0.00 0.00 0.00 90 1005.1
20260506021911 79 179 3.0 8.0 0.00 0.00 0.00 89 1005.0
20260506021411 79 114 3.0 9.0 0.00 0.00 0.00 89 1005.0
20260506020911 79 171 4.0 9.0 0.00 0.00 0.00 89 1004.9
20260506020411 79 116 3.0 7.0 0.00 0.00 0.00 88 1004.8
20260506015912 80 185 4.0 7.0 0.00 0.00 0.00 88 1004.7
20260506015412 80 145 4.0 8.0 0.00 0.00 0.00 88 1004.7
20260506014912 80 138 4.0 9.0 0.00 0.00 0.00 88 1004.6
20260506014406 80 129 4.0 10.0 0.00 0.00 0.00 87 1004.5
20260506013406 80 164 4.0 9.0 0.00 0.00 0.00 87 1004.4
20260506012406 80 134 4.0 9.0 0.00 0.00 0.00 86 1004.2
20260506011406 81 122 4.0 9.0 0.00 0.00 0.00 86 1004.1
20260506010906 81 104 4.0 9.0 0.00 0.00 0.00 86 1003.9
20260506010407 81 147 4.0 9.0 0.00 0.00 0.00 86 1004.0
20260506005406 82 106 4.0 9.0 0.00 0.00 0.00 84 1003.8
20260506004906 82 122 4.0 9.0 0.00 0.00 0.00 84 1003.7
20260506003404 82 142 3.0 8.0 0.00 0.00 0.00 84 1003.7
20260506002902 83 195 3.0 8.0 0.00 0.00 0.00 83 1003.6
20260506001903 83 97 4.0 11.0 0.00 0.00 0.00 83 1003.6
20260506001400 83 164 4.0 11.0 0.00 0.00 0.00 83 1003.6
20260506000903 83 122 4.0 11.0 0.00 0.00 0.00 83 1003.6
20260506000401 83 142 5.0 10.0 0.00 0.00 0.00 83 1003.5
20260505235903 83 128 5.0 10.0 0.00 0.00 0.00 83 1003.6
20260505235401 84 121 5.0 10.0 0.00 0.00 0.00 82 1003.5
20260505234401 84 119 4.0 13.0 0.00 0.00 0.00 81 1003.4
20260505233904 84 116 4.0 18.0 0.00 0.00 0.00 81 1003.3
20260505232355 85 118 5.0 10.0 0.00 0.00 0.00 79 1003.2
20260505231857 85 153 5.0 13.0 0.00 0.00 0.00 78 1003.3
20260505231353 85 72 5.0 13.0 0.00 0.00 0.00 79 1003.2
20260505225856 85 135 5.0 13.0 0.00 0.00 0.00 78 1003.2
20260505225351 85 102 5.0 9.0 0.00 0.00 0.00 77 1003.0
20260505224351 86 115 5.0 14.0 0.00 0.00 0.00 77 1003.1
20260505223855 86 97 5.0 11.0 0.00 0.00 0.00 76 1003.1
20260505223352 86 134 6.0 11.0 0.00 0.00 0.00 77 1003.1
20260505222856 85 91 6.0 18.0 0.00 0.00 0.00 77 1003.1
20260505222351 86 96 6.0 18.0 0.00 0.00 0.00 77 1003.1
20260505221855 86 98 5.0 11.0 0.00 0.00 0.00 76 1003.2
20260505221351 87 87 5.0 11.0 0.00 0.00 0.00 76 1003.2
20260505220855 86 113 5.0 12.0 0.00 0.00 0.00 76 1003.2
20260505220352 87 103 5.0 12.0 0.00 0.00 0.00 76 1003.1
20260505215351 86 121 6.0 17.0 0.00 0.00 0.00 75 1003.4
20260505214852 86 125 6.0 17.0 0.00 0.00 0.00 76 1003.2
20260505214351 87 94 6.0 13.0 0.00 0.00 0.00 76 1003.4
20260505213853 87 144 6.0 13.0 0.00 0.00 0.00 75 1003.5
20260505212852 87 138 5.0 12.0 0.00 0.00 0.00 75 1003.5
20260505212351 88 116 5.0 12.0 0.00 0.00 0.00 74 1003.5
20260505211852 87 161 5.0 12.0 0.00 0.00 0.00 74 1003.6
20260505210852 87 128 5.0 13.0 0.00 0.00 0.00 74 1003.7
20260505210351 88 140 5.0 11.0 0.00 0.00 0.00 73 1003.8
20260505205853 88 121 5.0 11.0 0.00 0.00 0.00 74 1003.9
20260505205349 88 174 5.0 11.0 0.00 0.00 0.00 74 1003.8
20260505204850 89 70 5.0 13.0 0.00 0.00 0.00 72 1004.0
20260505204346 89 90 5.0 13.0 0.00 0.00 0.00 70 1004.1
20260505203848 89 139 4.0 10.0 0.00 0.00 0.00 72 1004.2
20260505202848 90 91 4.0 10.0 0.00 0.00 0.00 69 1004.3
20260505202346 90 125 4.0 10.0 0.00 0.00 0.00 69 1004.4
20260505201848 91 150 3.0 10.0 0.00 0.00 0.00 68 1004.6
20260505201346 92 91 3.0 10.0 0.00 0.00 0.00 65 1004.6
20260505200848 93 125 3.0 12.0 0.00 0.00 0.00 59 1004.7
20260505200346 93 193 3.0 12.0 0.00 0.00 0.00 59 1004.7
20260505194848 92 150 3.0 9.0 0.00 0.00 0.00 60 1004.8
20260505194345 91 127 4.0 14.0 0.00 0.00 0.00 61 1004.8
20260505193842 91 125 4.0 14.0 0.00 0.00 0.00 62 1004.9
20260505193342 91 138 5.0 14.0 0.00 0.00 0.00 61 1005.1
20260505192838 90 184 4.0 14.0 0.00 0.00 0.00 62 1005.1
20260505192337 90 59 4.0 11.0 0.00 0.00 0.00 63 1005.1
20260505191838 90 184 4.0 11.0 0.00 0.00 0.00 62 1005.1
20260505191338 90 137 4.0 13.0 0.00 0.00 0.00 63 1005.1
20260505190838 90 175 4.0 13.0 0.00 0.00 0.00 62 1005.2
20260505185338 89 178 4.0 12.0 0.00 0.00 0.00 64 1005.3
20260505184841 89 166 5.0 13.0 0.00 0.00 0.00 64 1005.4
20260505184341 89 156 5.0 13.0 0.00 0.00 0.00 64 1005.5
20260505183840 88 188 6.0 13.0 0.00 0.00 0.00 66 1005.6
20260505183340 88 182 6.0 13.0 0.00 0.00 0.00 66 1005.7
20260505182851 88 173 6.0 11.0 0.00 0.00 0.00 66 1005.7
20260505182337 88 136 6.0 12.0 0.00 0.00 0.00 67 1005.7
20260505181836 88 164 6.0 12.0 0.00 0.00 0.00 66 1005.7
20260505181333 88 206 5.0 11.0 0.00 0.00 0.00 67 1005.8
20260505180832 88 166 4.0 11.0 0.00 0.00 0.00 67 1005.8
20260505180333 88 169 5.0 12.0 0.00 0.00 0.00 67 1005.9